| time (UTC) | temp C | wind direction | speed KPH | gust KPH | rain 1hr cm | rain 24hr cm | rain mn cm | humidity % | barometer mb |
| 20260505124513 | 21 | 280 | 1.6 | 6.4 | 0.00 | 0.00 | 0.00 | 52 | 1012.5 |
| 20260505123011 | 21 | 355 | 0.0 | 6.4 | 0.00 | 0.00 | 0.00 | 52 | 1012.4 |
| 20260505121509 | 20 | 15 | 0.0 | 4.8 | 0.00 | 0.00 | 0.00 | 55 | 1012.3 |
| 20260505120009 | 19 | 38 | 0.0 | 3.2 | 0.00 | 0.00 | 0.00 | 59 | 1012.2 |
| 20260505114601 | 18 | 90 | 0.0 | 4.8 | 0.00 | 0.00 | 0.00 | 62 | 1012.2 |
| 20260505113055 | 16 | 287 | 0.0 | 4.8 | 0.00 | 0.00 | 0.00 | 68 | 1012.2 |
| 20260505111554 | 15 | 273 | 0.0 | 3.2 | 0.00 | 0.00 | 0.00 | 70 | 1012.0 |
| 20260505101552 | 15 | 263 | 0.0 | 1.6 | 0.00 | 0.00 | 0.00 | 69 | 1011.5 |
| 20260505100046 | 15 | 254 | 0.0 | 4.8 | 0.00 | 0.00 | 0.00 | 69 | 1011.3 |
| 20260505094545 | 15 | 348 | 0.0 | 3.2 | 0.00 | 0.00 | 0.00 | 69 | 1011.2 |
| 20260505093045 | 15 | 309 | 0.0 | 3.2 | 0.00 | 0.00 | 0.00 | 69 | 1011.1 |
| 20260505091543 | 15 | 80 | 0.0 | 1.6 | 0.00 | 0.00 | 0.00 | 69 | 1011.1 |
| 20260505090046 | 15 | 77 | 0.0 | 3.2 | 0.00 | 0.00 | 0.00 | 68 | 1011.1 |
| 20260505084540 | 15 | 109 | 0.0 | 3.2 | 0.00 | 0.00 | 0.00 | 67 | 1011.0 |
| 20260505083038 | 16 | 97 | 0.0 | 6.4 | 0.00 | 0.00 | 0.00 | 66 | 1011.1 |
| 20260505081540 | 16 | 273 | 0.0 | 3.2 | 0.00 | 0.00 | 0.00 | 65 | 1011.2 |
| 20260505080039 | 16 | 273 | 0.0 | 3.2 | 0.00 | 0.00 | 0.00 | 64 | 1011.1 |
| 20260505074534 | 16 | 258 | 0.0 | 3.2 | 0.00 | 0.00 | 0.00 | 63 | 1011.2 |
| 20260505073046 | 16 | 44 | 0.0 | 3.2 | 0.00 | 0.00 | 0.00 | 62 | 1011.2 |
| 20260505071533 | 16 | 294 | 0.0 | 4.8 | 0.00 | 0.00 | 0.00 | 62 | 1011.1 |
| 20260505070032 | 16 | 275 | 0.0 | 4.8 | 0.00 | 0.00 | 0.00 | 62 | 1011.2 |
| 20260505064540 | 16 | 58 | 0.0 | 3.2 | 0.00 | 0.00 | 0.00 | 61 | 1011.2 |
| 20260505063032 | 16 | 66 | 0.0 | 3.2 | 0.00 | 0.00 | 0.00 | 61 | 1011.2 |
| 20260505061545 | 16 | 327 | 0.0 | 4.8 | 0.00 | 0.00 | 0.00 | 60 | 1011.0 |
| 20260505060034 | 16 | 101 | 1.6 | 12.9 | 0.00 | 0.00 | 0.00 | 60 | 1011.0 |
| 20260505054549 | 16 | 65 | 0.0 | 4.8 | 0.00 | 0.00 | 0.00 | 60 | 1010.9 |
| 20260505053031 | 16 | 80 | 0.0 | 4.8 | 0.00 | 0.00 | 0.00 | 58 | 1011.0 |
| 20260505051527 | 16 | 83 | 0.0 | 4.8 | 0.00 | 0.00 | 0.00 | 57 | 1011.1 |
| 20260505041520 | 17 | 90 | 0.0 | 3.2 | 0.00 | 0.00 | 0.00 | 53 | 1011.2 |
| 20260505040018 | 17 | 62 | 0.0 | 4.8 | 0.00 | 0.00 | 0.00 | 52 | 1010.9 |
| 20260505034517 | 17 | 94 | 0.0 | 6.4 | 0.00 | 0.00 | 0.00 | 51 | 1010.9 |
| 20260505033020 | 17 | 88 | 0.0 | 6.4 | 0.00 | 0.00 | 0.00 | 49 | 1011.0 |
| 20260505031536 | 17 | 78 | 0.0 | 6.4 | 0.00 | 0.00 | 0.00 | 48 | 1011.1 |
| 20260505030015 | 17 | 88 | 0.0 | 4.8 | 0.00 | 0.00 | 0.00 | 47 | 1011.0 |
| 20260505024527 | 18 | 80 | 0.0 | 3.2 | 0.00 | 0.00 | 0.00 | 46 | 1011.0 |
| 20260505023014 | 18 | 68 | 0.0 | 6.4 | 0.00 | 0.00 | 0.00 | 46 | 1011.2 |
| 20260505021518 | 18 | 80 | 0.0 | 3.2 | 0.00 | 0.00 | 0.00 | 47 | 1011.4 |
| 20260505020025 | 18 | 118 | 0.0 | 3.2 | 0.00 | 0.00 | 0.00 | 46 | 1011.4 |
| 20260505014512 | 18 | 71 | 0.0 | 1.6 | 0.00 | 0.00 | 0.00 | 46 | 1011.2 |
| 20260505013012 | 18 | 86 | 0.0 | 4.8 | 0.00 | 0.00 | 0.00 | 45 | 1011.2 |
| 20260505011514 | 18 | 65 | 0.0 | 3.2 | 0.00 | 0.00 | 0.00 | 45 | 1011.1 |
| 20260505010011 | 18 | 66 | 0.0 | 1.6 | 0.00 | 0.00 | 0.00 | 44 | 1011.0 |
| 20260505004522 | 19 | 65 | 0.0 | 3.2 | 0.00 | 0.00 | 0.00 | 43 | 1010.7 |
| 20260505003010 | 20 | 65 | 0.0 | 1.6 | 0.00 | 0.00 | 0.00 | 42 | 1010.7 |
| 20260505001510 | 20 | 65 | 0.0 | 3.2 | 0.00 | 0.00 | 0.00 | 41 | 1010.6 |
| 20260505000013 | 20 | 19 | 0.0 | 3.2 | 0.00 | 0.00 | 0.00 | 40 | 1010.5 |
| 20260504234508 | 21 | 118 | 0.0 | 4.8 | 0.00 | 0.00 | 0.00 | 39 | 1010.5 |
| 20260504233008 | 21 | 117 | 0.0 | 3.2 | 0.00 | 0.00 | 0.00 | 38 | 1010.4 |
| 20260504231608 | 21 | 88 | 0.0 | 6.4 | 0.00 | 0.00 | 0.00 | 37 | 1010.4 |
| 20260504230006 | 22 | 108 | 0.0 | 4.8 | 0.00 | 0.00 | 0.00 | 36 | 1010.4 |
| 20260504224508 | 22 | 69 | 1.6 | 4.8 | 0.00 | 0.00 | 0.00 | 35 | 1010.3 |
| 20260504223006 | 22 | 34 | 0.0 | 6.4 | 0.00 | 0.00 | 0.00 | 35 | 1010.4 |
| 20260504221508 | 22 | 67 | 0.0 | 6.4 | 0.00 | 0.00 | 0.00 | 35 | 1010.6 |
| 20260504220003 | 23 | 139 | 1.6 | 9.7 | 0.00 | 0.00 | 0.00 | 34 | 1010.6 |
| 20260504214502 | 23 | 44 | 1.6 | 11.3 | 0.00 | 0.00 | 0.00 | 34 | 1010.7 |
| 20260504213001 | 23 | 89 | 0.0 | 9.7 | 0.00 | 0.00 | 0.00 | 35 | 1010.7 |
| 20260504211616 | 23 | 100 | 1.6 | 9.7 | 0.00 | 0.00 | 0.00 | 35 | 1010.7 |
| 20260504210059 | 23 | 92 | 1.6 | 8.0 | 0.00 | 0.00 | 0.00 | 35 | 1010.7 |
| 20260504204603 | 23 | 62 | 1.6 | 9.7 | 0.00 | 0.00 | 0.00 | 35 | 1010.8 |
| 20260504203110 | 23 | 78 | 0.0 | 8.0 | 0.00 | 0.00 | 0.00 | 35 | 1010.7 |
| 20260504201600 | 23 | 295 | 1.6 | 6.4 | 0.00 | 0.00 | 0.00 | 36 | 1011.0 |
| 20260504200055 | 23 | 121 | 1.6 | 9.7 | 0.00 | 0.00 | 0.00 | 34 | 1011.0 |
| 20260504194554 | 23 | 109 | 1.6 | 11.3 | 0.00 | 0.00 | 0.00 | 34 | 1011.1 |
| 20260504193051 | 23 | 52 | 0.0 | 9.7 | 0.00 | 0.00 | 0.00 | 35 | 1011.3 |
| 20260504191548 | 23 | 41 | 0.0 | 6.4 | 0.00 | 0.00 | 0.00 | 34 | 1011.5 |
| 20260504190045 | 22 | 275 | 0.0 | 6.4 | 0.00 | 0.00 | 0.00 | 34 | 1011.6 |
| 20260504184542 | 22 | 55 | 1.6 | 14.5 | 0.00 | 0.00 | 0.00 | 36 | 1011.8 |
| 20260504183041 | 22 | 84 | 1.6 | 6.4 | 0.00 | 0.00 | 0.00 | 36 | 1012.0 |
| 20260504181538 | 22 | 130 | 0.0 | 11.3 | 0.00 | 0.00 | 0.00 | 34 | 1012.3 |
| 20260504180036 | 22 | 289 | 1.6 | 9.7 | 0.00 | 0.00 | 0.00 | 36 | 1012.4 |
| 20260504174532 | 22 | 254 | 1.6 | 12.9 | 0.00 | 0.00 | 0.00 | 35 | 1012.7 |
| 20260504173029 | 21 | 292 | 3.2 | 11.3 | 0.00 | 0.00 | 0.00 | 37 | 1012.9 |
| 20260504171526 | 21 | 329 | 0.0 | 6.4 | 0.00 | 0.00 | 0.00 | 37 | 1013.2 |